User: anonymous   Login
Location: Christchurch
(43.5330°S, 172.6330°E)
Time: 14:01:33
(UTC+13:00)
Language:

Cosmos 2322 - Orbit

View from above orbital plane
View from above orbital plane
View from above satellite
View from above satellite

Ground track
Ground track

The orbit data is extracted from the following two-line orbital elements,

1 23704U 95058A   19286.81076413 -.00000275  00000-0 -12070-3 0  9998
2 23704  70.9849  65.0396 0012244 253.5304 106.4473 14.13406611235742
Epoch (UTC): 13 October 2019 19:27:30
Eccentricity: 0.0012244
inclination: 70.9849°
perigee height: 839 km
apogee height: 856 km
right ascension of ascending node: 65.0396°
argument of perigee: 253.5304°
revolutions per day: 14.13406611
mean anomaly at epoch: 106.4473°
orbit number at epoch: 23574

The dashed part of the orbit path shows where the satellite is in the earth's shadow,  

DLR